User: anonymous   Login
Location: Unspecified
(0.0000°N, 0.0000°E)
Time: 22:16:52
(UTC+00:00)
Language:

TBA - TO BE ASSIGNED - Orbit

View from above orbital plane
View from above orbital plane
View from above satellite
View from above satellite

Ground track
Ground track

The orbit is defined by the following mean orbital elements,

1 68438U          26144.86001650 +.00000000 +00000-0 +48403-3 0 00007
2 68438  97.4509 103.6850 0005455 109.3427 250.8398 15.19031909    06
Epoch (UTC): 24 May 2026 20:38:25
Eccentricity: 0.0005455
inclination: 97.4509°
perigee height: 505 km
apogee height: 513 km
right ascension of ascending node: 103.6850°
argument of perigee: 109.3427°
revolutions per day: 15.19031909
mean anomaly at epoch: 250.8398°

The dashed part of the orbit path shows where the satellite is in the earth's shadow,  

DLR